Location: Penum?ka
(16.4840°N, 80.5772°E)
Time: 01:10:45
(UTC+00:00)

CSL-04 Rocket - Pass Details

Date: 19 May 2025
Orbit: 804 x 858 km, 98.7° (Epoch: 24 June)

Event Time Altitude Azimuth Distance (km) Brightness Sun altitude
Exits shadow 14:26:44 35° 111° (ESE) 1,329 4.2 -19.2°
Maximum altitude 14:28:09 41° 75° (ENE) 1,181 4.1 -19.5°
Drops below altitude 10° 14:33:10 10° 6° (N) 2,420 6.4 -20.5°
Sets 14:35:36 0° 359° (N) 3,345 7.2 -21.0°
